Location: UBC Liquid-Mirror Observatory
(49.2876°N, 122.5728°W)
Time: 15:12:07
(UTC-07:00)

KITSAT 1 - Visible Passes

Search period start: 30 May 2016 00:00
Search period end: 09 June 2016 00:00
Orbit: 1306 x 1325 km, 66.1° (Epoch: 29 May)

Date Brightness Start Highest point End Pass type
(mag) Time Alt. Az. Time Alt. Az. Time Alt. Az.
30 May 12.0 00:01:20 10° WNW 00:06:16 18° W 00:11:13 10° SW visible
30 May 10.8 22:20:23 10° NW 22:28:12 53° WSW 22:35:57 10° S visible
31 May 12.3 00:19:48 10° W 00:21:43 11° W 00:23:39 10° WSW visible
31 May 11.2 22:36:43 10° NW 22:44:01 38° WSW 22:51:16 10° S visible
01 Jun 11.7 22:53:15 10° NW 22:59:42 27° WSW 23:06:08 10° SSW visible
02 Jun 12.1 23:10:12 10° WNW 23:15:17 18° W 23:20:21 10° SW visible
03 Jun 12.4 23:28:24 10° WNW 23:30:44 11° W 23:33:04 10° WSW visible
04 Jun 11.3 21:45:39 10° NW 21:53:00 39° WSW 22:00:18 10° S visible
05 Jun 11.8 22:02:11 10° NW 22:08:42 28° WSW 22:15:12 10° SSW visible
06 Jun 12.2 22:19:05 10° WNW 22:24:18 19° W 22:29:29 10° SW visible
07 Jun 12.5 22:37:04 10° WNW 22:39:45 12° W 22:42:26 10° WSW visible
